Location: Rounton
(54.4000°N, 1.3500°W)
Time: 07:19:51
(UTC+00:00)

Vanguard 3 - Pass Details

Date: 09 December 2021
Orbit: 508 x 3260 km, 33.3° (Epoch: 16 January)

Event Time Altitude Azimuth Distance (km) Brightness Sun altitude
Rises 09:06:27 0° 271° (W) 7,064 11.5 4.4°
Reaches altitude 10° 09:17:38 10° 241° (WSW) 5,452 11.3 5.4°
Maximum altitude 09:20:15 11° 232° (SW) 5,207 11.3 5.7°
Drops below altitude 10° 09:22:43 10° 222° (SW) 5,054 11.4 5.9°
Sets 09:31:01 0° 189° (S) 5,242 12.1 6.6°
